Temperature
5 5 5 6 6 7 7 7 7 8 9 9 8 8 9 9 9 9 10 10 11 12 12 12 12 13 13 13 13 12 12 12 12 12 12 12 12 12 12 12 12 12 12 12
4 4 5 6 6 7 7 7 7 7 8 9 8 8 8 9 9 9 10 10 10 11 11 12 12 12 12 12 12 12 12 12 12 12 12 12 12 12 12 12 12 12 12 12
4 5 6 6 6 6 7 7 7 7 7 8 8 8 8 8 9 9 9 10 10 10 11 11 12 12 12 12 12 12 12 12 12 12 12 12 11 11 11 11 11 11 11 11
4 5 5 5 5 6 6 7 7 7 7 7 7 7 7 7 7 8 8 9 9 10 10 11 11 11 12 12 12 11 12 12 12 12 11 11 11 11 11 11 11 11 11 11
3 4 5 5 5 6 6 6 7 7 6 6 6 6 6 7 7 7 7 8 9 9 10 10 11 11 11 11 11 11 11 11 11 11 11 11 11 11 11 11 11 11 11 11
3 4 5 5 6 6 5 6 6 6 5 6 6 6 6 6 7 7 7 7 8 9 9 10 10 10 11 11 11 11 11 11 11 11 11 11 11 11 11 11 10 10 10 10
3 4 4 5 5 5 5 5 5 5 5 5 6 6 6 6 6 7 7 7 8 9 9 9 9 10 10 10 10 10 10 11 10 10 10 10 10 10 10 10 10 10 10 10
2 3 4 4 5 4 5 5 5 5 5 5 5 5 6 5 5 6 7 7 7 8 8 9 9 9 10 10 10 10 10 10 10 10 10 10 10 10 10 10 10 10 10 10
2 2 4 4 4 5 4 4 4 4 4 4 4 4 5 5 5 5 5 6 6 7 8 8 8 9 9 9 10 10 10 9 10 9 9 9 9 9 9 9 9 9 9 9
1 1 2 3 4 4 4 4 3 3 4 5 5 4 4 4 4 4 4 4 5 6 6 7 7 8 8 9 9 9 9 9 9 9 9 9 9 9 9 9 9 9 9 9
1 1 1 2 3 3 3 3 3 3 3 4 4 5 4 4 4 4 3 3 4 4 5 6 6 7 7 8 8 8 8 8 8 8 8 8 8 8 8 8 8 8 8 8
1 -0 -0 1 2 3 3 3 3 3 3 3 3 4 3 2 2 2 3 3 3 4 4 5 6 6 6 7 7 7 7 8 8 8 8 8 8 8 8 8 8 8 8 8
1 -0 0 1 2 2 2 2 2 2 2 2 3 4 3 1 1 2 2 2 3 3 4 4 5 5 6 6 6 6 7 7 7 7 7 7 7 7 7 7 7 7 7 7
1 -1 -0 1 1 1 1 2 2 2 2 2 2 3 3 2 1 1 1 2 2 3 3 4 4 4 5 5 5 6 6 6 7 7 7 7 7 7 7 7 7 7 6 6
-1 -1 -1 -0 1 1 1 1 2 2 2 2 2 2 2 2 1 0 1 1 1 2 2 3 3 4 4 4 5 5 5 6 6 6 6 6 6 6 6 6 6 6 5 5
-3 -2 -1 -1 1 1 1 1 1 2 2 2 2 2 1 0 0 0 0 0 0 0 1 2 2 3 3 4 4 4 5 5 5 5 6 5 5 5 5 5 5 5 5 5
-3 -3 -2 -1 -1 0 0 0 1 1 1 1 2 1 -0 -0 -1 -0 -0 -0 -0 -0 0 1 2 2 2 3 3 4 4 4 4 5 4 4 5 5 4 4 4 4 4 4
-3 -3 -3 -2 -1 -0 0 -1 -1 -0 -1 -1 -0 -0 -1 -1 -1 -0 -0 -0 -0 -0 0 1 1 2 2 2 2 3 3 3 3 4 4 4 4 4 4 4 4 4 4 3
-3 -3 -3 -3 -2 -2 -1 -2 -2 -1 -1 -1 -1 -1 -2 -1 -1 -1 -0 -0 -0 -0 -0 0 1 1 1 1 2 2 2 2 3 3 3 3 3 3 3 3 3 3 3 3
-4 -4 -4 -3 -2 -1 -1 -2 -3 -2 -1 -2 -2 -2 -2 -2 -1 -2 -1 -1 -1 -1 -0 -0 0 0 1 1 1 1 2 2 2 2 2 2 2 2 2 2 2 2 2 2
-4 -4 -4 -3 -3 -3 -3 -4 -2 -1 -1 -3 -2 -2 -3 -3 -2 -2 -2 -1 -1 -1 -1 -1 -0 -0 0 0 0 1 1 1 1 1 1 1 1 1 1 1 1 1 1 1
-5 -5 -5 -4 -3 -2 -4 -4 -3 -3 -3 -3 -3 -3 -3 -3 -3 -3 -2 -2 -2 -1 -1 -1 -1 -1 -1 -1 -0 -0 0 0 0 0 0 1 1 1 1 1 0 0 0 0
-6 -5 -5 -5 -4 -4 -4 -4 -3 -3 -3 -3 -3 -3 -3 -3 -3 -3 -3 -3 -3 -2 -2 -2 -2 -1 -1 -1 -1 -1 -1 -1 -0 -0 -0 0 0 -0 -0 -0 -0 -0 -0 -0
-7 -7 -6 -6 -5 -5 -4 -4 -4 -4 -4 -3 -3 -3 -3 -4 -4 -3 -3 -3 -3 -3 -3 -3 -2 -2 -2 -2 -1 -1 -1 -1 -1 -1 -1 -1 -1 -1 -1 -1 -1 -1 -1 -1
-7 -7 -7 -7 -6 -5 -4 -4 -4 -4 -4 -4 -4 -4 -4 -4 -4 -4 -4 -4 -4 -4 -4 -3 -3 -3 -2 -2 -2 -2 -2 -2 -1 -1 -1 -1 -1 -1 -1 -1 -1 -2 -2 -2
-8 -7 -7 -6 -5 -6 -5 -4 -4 -4 -5 -4 -4 -4 -4 -4 -4 -4 -4 -4 -4 -4 -4 -4 -3 -3 -3 -3 -3 -2 -2 -2 -2 -2 -2 -2 -2 -2 -2 -2 -2 -2 -2 -2
Wind_Speed
1 3 6 8 8 5 5 4 5 4 2 4 6 6 4 2 5 6 6 7 7 6 4 3 4 6 8 8 9 10 10 9 8 6 5 4 4 3 3 4 6 8 8 8
2 5 6 4 3 3 5 5 3 2 1 3 3 5 4 3 5 6 7 7 6 4 3 3 4 6 8 10 10 9 10 10 9 6 5 3 4 3 3 4 5 6 7 7
4 2 2 3 3 4 5 7 5 2 1 1 1 3 4 3 2 2 3 5 5 5 6 5 5 5 7 9 10 10 10 10 9 8 6 5 4 4 2 2 2 3 6 7
2 2 3 4 5 4 6 4 4 3 2 1 3 4 5 4 3 4 4 3 4 4 4 4 5 5 6 7 7 8 9 9 9 9 8 9 6 5 4 4 3 3 5 6
2 2 5 6 5 5 3 1 3 3 2 0 2 3 5 2 5 6 6 5 5 4 4 5 5 6 5 5 6 6 8 8 8 8 9 9 6 4 3 4 4 3 3 5
2 2 3 3 2 4 2 3 2 1 1 4 7 5 5 5 8 5 5 5 5 4 4 3 3 3 3 3 4 5 7 7 8 8 8 8 9 7 7 5 5 4 2 3
3 1 1 2 3 3 4 4 2 2 3 6 6 6 7 5 5 6 6 5 5 4 4 3 3 3 4 4 4 5 7 7 7 8 8 8 8 8 9 7 6 5 3 3
1 2 1 0 3 4 5 5 4 4 4 2 4 7 5 3 3 3 2 2 1 2 3 4 4 4 4 5 5 6 7 6 7 7 7 6 6 5 5 5 5 5 4 4
0 3 2 1 1 4 4 3 2 2 0 1 4 4 5 2 2 1 0 1 1 1 1 2 2 3 3 4 5 5 6 6 6 6 5 5 6 5 5 5 4 4 3 4
1 2 3 2 2 1 3 4 3 3 3 3 3 3 3 3 2 1 1 1 1 1 1 1 0 1 1 2 2 3 4 5 5 5 5 4 5 5 5 5 5 5 4 5
0 1 3 2 1 3 3 2 2 3 2 3 3 4 2 4 3 3 2 1 1 0 0 1 1 1 2 2 2 2 2 3 4 4 4 5 4 4 5 5 5 5 4 5
0 2 1 3 3 1 1 3 4 3 3 2 2 4 2 2 2 1 1 1 1 1 1 1 2 3 3 3 2 2 2 2 3 4 4 4 4 4 4 4 4 5 5 5
1 2 1 3 2 1 0 1 3 3 2 3 3 5 1 3 3 3 2 2 2 3 2 2 3 3 2 2 2 2 1 1 2 3 4 4 4 4 4 4 4 4 5 4
1 2 4 5 4 2 2 2 2 4 3 4 6 6 5 5 4 4 3 2 2 2 3 3 2 2 2 2 2 2 2 1 2 3 4 4 4 4 4 4 4 4 4 4
2 1 2 4 4 2 3 5 4 5 6 6 5 5 6 4 3 3 2 2 3 3 3 3 2 1 2 2 2 2 2 1 2 3 4 3 3 3 4 4 4 3 3 3
2 0 1 3 2 2 4 6 7 8 6 6 6 8 4 3 2 2 1 1 1 2 2 2 2 2 2 2 2 2 2 2 2 3 3 4 4 4 4 4 4 4 3 3
1 1 1 3 4 2 5 6 7 5 4 5 7 6 2 2 3 3 2 1 1 1 2 2 2 1 1 1 1 1 1 1 2 3 4 4 4 4 4 4 4 4 3 3
2 2 1 1 2 4 5 2 2 3 3 3 3 3 3 3 2 2 2 1 2 1 1 2 1 1 1 1 2 2 2 2 3 3 4 3 4 4 4 4 4 3 2 2
3 3 1 1 1 5 5 3 1 2 3 3 3 3 2 1 1 3 2 1 1 2 2 1 1 0 1 1 2 2 2 3 3 3 3 3 4 4 4 4 3 2 3 2
2 2 2 1 1 4 4 3 3 0 3 2 1 2 2 0 1 4 3 2 2 2 1 1 1 2 2 2 2 3 3 3 3 2 2 2 3 4 4 3 3 2 2 2
2 1 1 2 3 5 4 5 1 2 4 3 2 2 2 2 3 2 2 2 2 2 2 2 2 2 1 1 2 3 3 3 2 2 3 3 3 4 4 3 3 3 3 3
3 2 2 2 3 5 3 1 2 4 3 2 2 2 2 2 1 1 1 2 2 2 2 2 3 2 2 2 3 3 2 2 2 3 4 4 3 3 4 4 3 3 3 3
3 4 3 5 5 3 2 3 3 2 3 3 2 2 1 1 1 1 1 1 2 1 1 2 2 2 2 2 2 3 1 2 2 4 4 4 4 4 3 4 4 3 3 2
3 1 2 3 5 5 4 3 4 3 3 3 3 3 1 1 1 1 0 1 1 1 1 1 2 2 2 2 2 2 1 2 3 3 3 3 3 3 3 2 2 2 2 1
5 2 2 4 6 5 4 3 3 3 3 3 3 2 1 1 1 1 1 1 1 1 0 1 1 1 1 2 2 2 1 2 3 3 3 3 3 3 3 2 2 1 1 1
3 4 4 5 5 3 5 4 3 3 3 3 2 3 2 1 2 1 1 1 1 1 0 1 1 1 1 2 2 2 1 2 3 3 2 2 2 2 2 2 2 3 2 2
Wind_Direction
135 147 199 206 205 208 180 185 210 223 213 177 205 231 245 206 180 192 194 195 198 205 196 171 170 163 154 155 161 164 160 156 150 148 146 144 146 133 119 124 134 137 136 136
119 217 222 204 198 200 201 202 212 263 243 192 199 247 254 222 195 196 195 197 204 201 179 172 169 167 167 169 171 172 170 166 165 165 156 139 133 127 123 118 123 136 139 139
188 224 185 174 193 209 219 209 203 188 20 52 118 283 257 250 212 204 200 193 193 190 192 186 178 179 176 176 179 182 177 171 166 153 132 113 100 92 109 128 134 134 141 137
231 242 171 182 198 201 227 216 208 176 144 237 177 229 257 233 235 227 223 211 208 211 195 187 181 181 186 187 180 178 174 168 165 158 157 155 160 169 181 170 158 137 137 138
251 208 180 195 206 186 215 167 189 184 162 199 197 205 263 215 227 234 226 222 219 212 194 194 195 191 188 177 171 168 166 165 165 166 170 167 162 160 144 138 140 138 126 132
273 242 196 191 176 170 137 75 82 76 125 226 208 196 250 217 215 223 226 220 221 214 202 196 189 170 161 144 151 159 164 166 164 166 172 173 167 158 150 155 162 158 145 127
337 321 328 120 123 141 132 127 148 195 214 234 180 193 240 231 221 217 218 218 220 210 196 187 177 169 164 160 165 165 167 168 169 171 176 176 171 168 171 173 175 168 164 170
359 276 267 79 164 174 183 165 171 189 207 247 171 212 240 250 264 239 211 187 177 200 199 192 190 182 175 174 173 171 176 175 171 176 178 170 164 167 174 176 172 174 178 177
183 277 305 291 167 147 161 183 158 126 96 182 229 267 304 308 333 347 145 116 158 210 208 198 181 169 168 176 180 178 176 176 173 173 167 165 166 167 169 167 159 160 156 152
183 273 300 323 57 50 148 146 129 145 170 218 246 245 249 271 282 301 309 265 294 357 41 35 121 145 161 163 151 152 161 171 169 163 164 163 163 165 161 158 162 162 159 152
118 173 318 8 163 179 129 143 147 151 171 176 226 262 241 230 234 227 230 236 272 297 43 42 49 60 62 77 101 116 135 142 155 162 155 149 152 151 153 162 169 165 159 157
45 114 272 270 270 218 164 175 161 171 210 191 193 271 323 288 298 284 290 326 22 20 50 70 68 65 64 67 83 106 119 142 156 155 146 148 148 146 154 163 166 159 161 163
59 105 32 351 358 54 8 222 172 152 135 177 186 257 4 22 10 8 5 16 31 28 36 50 62 64 61 56 59 69 92 115 135 138 139 139 144 148 157 161 160 158 156 157
83 132 181 207 227 194 239 245 186 160 193 222 223 249 291 326 337 344 359 13 38 36 35 38 43 44 50 45 54 52 54 98 115 128 136 139 147 153 158 154 149 149 151 153
90 197 241 264 269 238 246 247 228 215 211 217 235 245 271 289 300 316 342 29 37 29 26 22 17 24 47 39 36 41 39 68 108 121 130 136 136 135 132 133 134 131 135 142
51 259 327 309 302 274 277 258 237 241 235 227 243 260 265 290 337 340 345 19 21 359 358 357 2 21 31 31 27 33 34 39 100 118 127 126 126 125 126 129 127 122 116 118
20 88 53 288 315 341 273 249 223 214 210 211 233 244 266 288 294 287 283 279 284 309 328 335 337 351 1 4 16 34 46 59 94 113 121 124 125 122 125 125 118 117 118 115
160 121 152 300 22 237 253 311 219 212 251 238 241 267 267 261 275 312 306 262 282 289 299 313 327 349 4 17 33 45 54 78 95 109 113 116 118 119 120 120 119 119 119 123
173 156 150 153 245 274 296 310 300 223 265 256 236 266 295 315 356 329 332 306 268 270 270 276 285 27 49 46 53 69 63 76 84 91 97 121 127 126 124 121 120 120 116 112
76 115 138 147 210 250 276 313 312 216 278 304 234 230 245 344 288 287 335 2 3 353 11 60 72 76 70 42 65 81 74 74 75 80 89 100 118 124 127 127 119 110 118 115
33 45 173 197 233 266 291 304 321 180 260 306 287 247 230 242 241 265 342 8 28 40 47 72 82 76 70 69 84 82 70 55 42 66 79 82 101 116 120 113 108 112 103 92
194 184 202 175 208 260 318 33 175 242 294 302 303 285 244 253 288 337 11 21 37 45 48 66 74 55 41 70 92 83 62 28 43 76 82 84 94 102 106 110 103 102 102 92
213 206 199 200 223 268 276 253 278 292 290 292 288 290 264 261 280 334 2 11 33 44 38 57 82 59 34 42 90 96 43 37 66 81 83 83 85 91 102 115 114 105 101 99
277 240 208 259 272 278 283 297 312 303 289 300 295 286 270 247 267 309 353 12 23 26 48 69 75 66 34 33 47 70 52 56 91 97 94 95 98 97 94 99 106 109 109 104
252 218 229 258 281 308 304 288 297 314 324 328 324 307 260 227 242 242 281 316 324 341 7 87 103 95 40 39 44 50 57 87 99 96 94 93 94 105 98 83 80 94 128 166
226 198 200 237 243 230 273 304 317 319 319 315 318 324 321 223 221 238 261 263 262 302 14 85 95 91 61 49 40 28 37 100 110 102 95 98 96 95 96 88 56 44 51 45
Height
1462 1466 1466 1466 1467 1468 1471 1474 1475 1474 1471 1474 1475 1475 1475 1474 1475 1476 1477 1479 1481 1483 1486 1489 1492 1495 1498 1501 1505 1508 1511 1514 1517 1520 1523 1526 1529 1531 1534 1536 1538 1540 1541 1543
1465 1465 1464 1465 1467 1468 1470 1473 1475 1474 1472 1473 1475 1476 1474 1473 1474 1474 1475 1476 1478 1481 1484 1487 1490 1492 1495 1498 1502 1505 1509 1512 1515 1519 1522 1525 1527 1530 1533 1535 1537 1538 1540 1541
1464 1464 1464 1465 1467 1469 1470 1472 1473 1474 1474 1474 1475 1476 1474 1473 1473 1473 1474 1475 1477 1479 1481 1483 1486 1489 1492 1495 1499 1503 1506 1510 1513 1517 1520 1523 1526 1528 1530 1532 1534 1536 1538 1539
1464 1463 1464 1466 1468 1470 1470 1469 1471 1472 1477 1479 1478 1482 1475 1473 1473 1472 1472 1474 1475 1478 1479 1480 1483 1485 1489 1492 1496 1500 1504 1507 1511 1514 1517 1520 1522 1524 1527 1529 1532 1534 1536 1537
1465 1464 1464 1466 1467 1469 1470 1470 1471 1474 1478 1482 1481 1483 1477 1472 1472 1470 1470 1471 1473 1475 1477 1478 1480 1483 1486 1490 1494 1497 1501 1505 1508 1511 1514 1517 1520 1523 1525 1528 1530 1532 1534 1535
1466 1464 1465 1465 1466 1468 1470 1472 1473 1476 1479 1482 1479 1482 1478 1473 1468 1468 1468 1469 1470 1472 1474 1477 1479 1481 1484 1487 1491 1494 1498 1501 1505 1508 1511 1515 1517 1520 1522 1525 1527 1529 1531 1532
1468 1466 1465 1465 1467 1469 1471 1476 1480 1481 1481 1478 1475 1478 1473 1467 1465 1465 1466 1466 1467 1469 1472 1474 1476 1478 1481 1484 1488 1491 1494 1497 1501 1505 1508 1511 1514 1517 1520 1522 1524 1526 1528 1529
1473 1472 1467 1466 1467 1469 1471 1475 1480 1481 1480 1479 1476 1474 1469 1465 1463 1463 1465 1466 1467 1468 1470 1472 1474 1476 1479 1482 1485 1488 1491 1494 1498 1501 1505 1508 1511 1514 1517 1520 1522 1523 1525 1527
1477 1473 1467 1466 1467 1469 1472 1476 1476 1482 1483 1483 1478 1474 1468 1463 1462 1462 1463 1464 1465 1467 1468 1470 1472 1474 1477 1479 1482 1485 1488 1491 1494 1498 1502 1505 1508 1511 1514 1516 1519 1521 1522 1524
1477 1478 1471 1468 1467 1469 1471 1473 1479 1482 1482 1479 1474 1474 1471 1465 1464 1463 1464 1464 1465 1466 1467 1469 1471 1473 1475 1477 1480 1483 1485 1488 1491 1495 1498 1501 1505 1508 1511 1513 1515 1517 1519 1521
1477 1479 1476 1472 1471 1471 1473 1476 1476 1479 1479 1479 1477 1474 1467 1465 1464 1463 1463 1463 1464 1465 1466 1468 1469 1471 1473 1476 1478 1480 1483 1486 1488 1492 1495 1498 1501 1504 1507 1509 1512 1514 1516 1517
1477 1481 1483 1478 1473 1472 1473 1473 1477 1480 1481 1482 1481 1476 1466 1465 1464 1464 1464 1464 1464 1465 1466 1467 1468 1470 1472 1473 1476 1478 1481 1483 1486 1489 1492 1495 1498 1501 1503 1506 1508 1510 1512 1513
1478 1483 1485 1479 1479 1476 1475 1474 1475 1478 1482 1484 1482 1475 1467 1466 1465 1464 1464 1464 1464 1465 1465 1466 1467 1468 1470 1472 1474 1476 1478 1481 1483 1486 1489 1491 1494 1497 1499 1502 1504 1506 1508 1509
1478 1484 1485 1482 1476 1477 1477 1475 1474 1476 1480 1480 1476 1470 1467 1466 1466 1465 1464 1464 1464 1465 1465 1465 1467 1468 1469 1471 1473 1474 1476 1479 1481 1483 1485 1488 1491 1493 1496 1498 1500 1502 1504 1505
1480 1484 1483 1479 1475 1475 1475 1474 1473 1474 1474 1475 1471 1470 1467 1467 1466 1466 1465 1464 1464 1464 1465 1465 1466 1467 1468 1469 1471 1473 1475 1476 1478 1481 1482 1485 1487 1490 1492 1494 1496 1498 1500 1502
1483 1485 1483 1480 1474 1474 1474 1471 1470 1470 1470 1471 1470 1469 1467 1467 1466 1466 1465 1465 1465 1464 1465 1465 1465 1466 1467 1468 1469 1471 1472 1474 1476 1478 1480 1482 1484 1487 1489 1491 1492 1494 1496 1498
1486 1486 1486 1483 1479 1474 1475 1470 1469 1468 1468 1468 1467 1467 1467 1467 1466 1466 1465 1465 1465 1465 1464 1464 1465 1465 1466 1467 1468 1470 1471 1472 1474 1476 1478 1480 1482 1484 1486 1488 1489 1491 1493 1494
1485 1487 1490 1487 1484 1481 1473 1470 1468 1468 1468 1468 1467 1466 1466 1465 1465 1465 1465 1465 1464 1464 1464 1464 1464 1465 1466 1466 1467 1468 1470 1471 1472 1474 1475 1478 1479 1481 1483 1485 1486 1488 1490 1491
1483 1486 1490 1490 1488 1481 1473 1470 1470 1469 1468 1467 1466 1466 1466 1465 1464 1464 1464 1464 1464 1464 1464 1464 1464 1464 1465 1465 1466 1467 1469 1470 1471 1472 1474 1476 1478 1479 1481 1483 1484 1485 1487 1489
1484 1486 1490 1491 1486 1481 1473 1472 1470 1471 1469 1466 1465 1465 1465 1464 1466 1465 1463 1463 1463 1463 1463 1463 1463 1464 1464 1465 1465 1467 1468 1469 1469 1471 1472 1474 1476 1478 1479 1481 1482 1483 1485 1486
1490 1490 1491 1490 1488 1481 1476 1472 1470 1473 1469 1467 1465 1464 1464 1464 1465 1464 1462 1462 1462 1462 1462 1462 1462 1463 1463 1464 1465 1466 1467 1467 1469 1470 1471 1473 1475 1477 1478 1479 1480 1482 1483 1484
1491 1492 1493 1491 1488 1482 1474 1472 1473 1471 1467 1465 1464 1463 1463 1462 1462 1461 1461 1461 1461 1461 1461 1461 1461 1462 1463 1464 1465 1465 1466 1467 1468 1469 1470 1472 1473 1475 1476 1478 1479 1480 1481 1482
1490 1488 1486 1486 1482 1476 1473 1471 1469 1468 1466 1465 1463 1463 1462 1461 1461 1460 1461 1461 1461 1461 1461 1461 1461 1461 1462 1463 1464 1464 1465 1466 1467 1468 1469 1471 1472 1474 1475 1476 1477 1478 1479 1480
1486 1484 1484 1482 1476 1473 1471 1469 1468 1467 1465 1464 1463 1462 1461 1460 1460 1460 1460 1460 1460 1460 1460 1460 1460 1461 1461 1462 1463 1464 1464 1465 1466 1467 1468 1470 1471 1472 1474 1475 1476 1476 1477 1478
1483 1482 1482 1480 1474 1471 1468 1467 1466 1465 1463 1462 1461 1461 1460 1459 1459 1459 1459 1459 1460 1460 1460 1460 1460 1460 1460 1461 1462 1463 1463 1464 1465 1466 1467 1468 1470 1471 1472 1473 1474 1475 1476 1477
1478 1479 1479 1475 1471 1470 1468 1466 1465 1463 1462 1461 1460 1459 1459 1459 1458 1458 1458 1459 1459 1459 1459 1459 1459 1459 1459 1460 1461 1461 1462 1463 1464 1465 1466 1467 1468 1470 1471 1472 1473 1474 1475 1476